Flag for Germany Weather past 2 weeks in Zwickau, Saxony, Germany

Now
45 °F

Clear.


Feels Like: 41 °F
Forecast: 39 / 68 °F
Wind: 6 mph from South

Location: Gera-Leumnitz

Current Time: May 7, 2015 at 5:37:15 AM

Latest Report: May 7, 2015 at 5:00 AM


Visibility: 25 mi

Pressure: 30.05 "Hg

Humidity: 83%

Dew point: 40 °F

Location of ZwickauLocation

Historic Weather in Zwickau — Graph

°F

Zwickau temperature yesterday

Maximum temperature yesterday: 66 °F (at 4:00 PM)
Minimum temperature yesterday: 52 °F (at 11:00 PM)
Average temperature yesterday: 59 °F

Past Weeks' High & Low Weather Summary

 TemperatureHumidityPressure
High74 °F (May 5, 2:00 PM)100% (Apr 23, 7:00 AM)30.35 "Hg (Apr 23, 7:00 AM)
Low31 °F (Apr 23, 6:00 AM)33% (Apr 24, 6:00 PM)29.56 "Hg (Apr 27, 12:00 PM)
Average52 °F70%29.89 "Hg
* Reported Apr 22 4:00 AM — May 7 4:00 AM, Zwickau, Weather by CustomWeather, © 2015

Note: Actual official high and low records may vary slightly from our data, if they occured in-between our weather recording intervals... More about our weather records

Advertising

Zwickau weather history for previous 24 hours

 ConditionsComfort  
Time TempWeatherWind HumidityBarometerVisibility
4:00 AM
Thu, May 7
46 °FClear.6 mph82%30.03 "Hg18 mi
3:00 AM46 °FClear.5 mph84%30.03 "Hg17 mi
2:00 AM46 °FClear.3 mph83%30.04 "Hg17 mi
1:00 AM51 °FClear.1 mph69%30.03 "Hg22 mi
12:00 AM51 °FClear.1 mph68%30.01 "Hg13 mi
11:00 PM
Wed, May 6
52 °FClear.5 mph69%29.99 "Hg22 mi
10:00 PM57 °FPassing clouds.7 mph54%29.96 "Hg25 mi
9:00 PM61 °FOvercast.7 mph42%29.94 "Hg3 mi
8:00 PM62 °FScattered clouds.6 mph42%29.91 "Hg31 mi
7:00 PM63 °FPassing clouds.7 mph37%29.90 "Hg31 mi
6:00 PM65 °FPassing clouds.9 mph35%29.89 "Hg31 mi
5:00 PM66 °FPassing clouds.9 mph35%29.88 "Hg31 mi
4:00 PM66 °FPassing clouds.7 mph38%29.89 "Hg31 mi
3:00 PM65 °FScattered clouds.8 mph40%29.90 "Hg31 mi
2:00 PM64 °FScattered clouds.8 mph47%29.90 "Hg31 mi
1:00 PM62 °FOvercast.8 mph54%29.91 "Hg37 mi
12:00 PM61 °FOvercast.8 mph54%29.93 "Hg43 mi
11:00 AM60 °FOvercast.7 mph56%29.92 "Hg43 mi
10:00 AM60 °FOvercast.5 mph72%29.91 "Hg43 mi
9:00 AM57 °FOvercast.3 mph85%29.92 "Hg40 mi
8:00 AM56 °FOvercast.3 mph85%29.91 "Hg31 mi
7:00 AM53 °FOvercast.2 mph93%29.91 "Hg43 mi
6:00 AM53 °FOvercast.2 mph91%29.91 "Hg28 mi
5:00 AM53 °FOvercast.1 mph91%29.91 "Hg13 mi
Weather by CustomWeather, © 2015

See weather overviewHow to use our weather pages